Weather History for Hebron, NE

Change the Weather History Date:

Wednesday, February 12, 2014

  Actual Average Record
Temperature  
Mean Temperature 24 °F -  
Max Temperature 32 °F 39 °F 76 °F (1951)
Min Temperature 16 °F 15 °F -13 °F (1981)
Degree Days  
Heating Degree Days 41    
Moisture  
Dew Point 20 °F    
Average Humidity 80    
Maximum Humidity 88    
Minimum Humidity 70    
Precipitation  
Precipitation 0.00 in - - ()
Sea Level Pressure  
Sea Level Pressure 30.02 in    
Wind  
Wind Speed 11 mph (WSW)    
Max Wind Speed 23 mph    
Max Gust Speed 34 mph    
Visibility 10 miles    
Events      
Averages and records for this station are not official NWS values.
T = Trace of Precipitation, MM = Missing Value Source: NWS Daily Summary

Daily Weather History Graph

Daily Weather History Graph

Search for Another Location

Airport:

Trip Planner

Search our weather history database for the weather conditions in past years. The results will help you decide how hot, cold, wet, or windy it might be!

Date:

Astronomy

Feb. 12, 2014 Rise Set
Actual Time 7:27 AM CST 6:02 PM CST
Civil Twilight 6:59 AM CST 6:30 PM CST
Nautical Twilight 6:27 AM CST 7:02 PM CST
Astronomical Twilight 5:55 AM CST 7:34 PM CST
Moon 4:17 PM CST (2/12) 5:44 AM CST (2/12)
Length of Visible Light 11h 31m
Length of Day
10h 35m
Waxing Gibbous, 95% of the Moon is Illuminated
Feb 12
Waxing Gibbous
Feb 14
Full
Feb 22
Last Quarter
Mar 1
New
Mar 8
First Quarter

Hourly Weather History & Observations

Time (CST) Temp. Windchill Dew Point Humidity Pressure Visibility Wind Dir Wind Speed Gust Speed Precip Events Conditions
12:15 AM 19.2 °F 3.0 °F 12.2 °F 74% 30.04 in 10.0 mi SSW 20.7 mph 26.5 mph N/A   Overcast
12:35 AM 19.4 °F - 12.7 °F 75% 30.08 in 10.0 mi Calm Calm - N/A   Overcast
12:55 AM 20.1 °F 7.5 °F 13.3 °F 75% 30.07 in 10.0 mi SW 12.7 mph 17.3 mph N/A   Overcast
1:15 AM 20.3 °F 7.7 °F 14.0 °F 77% 30.07 in 10.0 mi SW 12.7 mph 19.6 mph N/A   Overcast
1:35 AM 20.3 °F 7.2 °F 14.0 °F 77% 30.05 in 10.0 mi SSW 13.8 mph 19.6 mph N/A   Overcast
1:55 AM 20.3 °F 7.7 °F 14.4 °F 78% 30.03 in 10.0 mi SW 12.7 mph 21.9 mph N/A   Overcast
2:15 AM 20.3 °F 7.2 °F 14.5 °F 78% 30.02 in 10.0 mi SSW 13.8 mph 19.6 mph N/A   Scattered Clouds
2:35 AM 20.8 °F 6.8 °F 15.1 °F 78% 29.99 in 10.0 mi SW 16.1 mph 28.8 mph N/A   Mostly Cloudy
2:55 AM 21.0 °F 7.1 °F 15.3 °F 78% 30.00 in 10.0 mi SSW 16.1 mph 21.9 mph N/A   Mostly Cloudy
3:15 AM 21.0 °F 8.6 °F 15.4 °F 79% 30.01 in 10.0 mi SW 12.7 mph 19.6 mph N/A   Scattered Clouds
3:35 AM 21.0 °F 8.1 °F 15.6 °F 80% 30.02 in 10.0 mi SW 13.8 mph 18.4 mph N/A   Mostly Cloudy
3:55 AM 20.8 °F 8.4 °F 15.6 °F 80% 30.02 in 10.0 mi SW 12.7 mph 21.9 mph N/A   Scattered Clouds
4:15 AM 20.8 °F 9.0 °F 15.6 °F 80% 30.01 in 10.0 mi SW 11.5 mph 16.1 mph N/A   Clear
4:35 AM 21.0 °F 9.9 °F 16.0 °F 81% 30.01 in 10.0 mi SW 10.4 mph - N/A   Mostly Cloudy
4:55 AM 21.2 °F 8.9 °F 16.2 °F 81% 30.00 in 10.0 mi WSW 12.7 mph 17.3 mph N/A   Overcast
5:15 AM 20.7 °F 10.2 °F 15.6 °F 81% 30.01 in 10.0 mi WSW 9.2 mph - N/A   Scattered Clouds
5:35 AM 19.9 °F 8.6 °F 15.3 °F 82% 30.02 in 10.0 mi WSW 10.4 mph - N/A   Clear
5:55 AM 19.4 °F 10.4 °F 14.9 °F 83% 30.02 in 10.0 mi WSW 6.9 mph - N/A   Clear
6:15 AM 18.7 °F 11.9 °F 14.5 °F 84% 30.02 in 10.0 mi West 4.6 mph - N/A   Clear
6:35 AM 17.8 °F 10.9 °F 13.8 °F 84% 30.02 in 10.0 mi West 4.6 mph - N/A   Clear
6:55 AM 17.4 °F 10.4 °F 13.8 °F 86% 30.03 in 10.0 mi West 4.6 mph - N/A   Clear
7:15 AM 16.7 °F - 13.5 °F 87% 30.03 in 10.0 mi Calm Calm - N/A   Clear
7:35 AM 19.0 °F 12.3 °F 15.8 °F 87% 30.04 in 10.0 mi West 4.6 mph - N/A   Scattered Clouds
7:55 AM 20.8 °F - 17.4 °F 87% 30.04 in 10.0 mi Calm Calm - N/A   Overcast
8:15 AM 22.1 °F 14.7 °F 18.9 °F 87% 30.05 in 7.0 mi NW 5.8 mph - N/A   Overcast
8:35 AM 23.4 °F 16.2 °F 20.1 °F 87% 30.07 in 7.0 mi NNW 5.8 mph - N/A   Overcast
8:55 AM 29.5 °F 15.8 °F 23.9 °F 80% 30.08 in 10.0 mi North 23.0 mph 29.9 mph N/A   Mostly Cloudy
9:10 AM 29.1 °F 16.4 °F 23.4 °F 79% 30.08 in 7.0 mi NNW 19.6 mph 34.5 mph N/A   Mostly Cloudy
9:35 AM 29.7 °F 17.4 °F 23.7 °F 79% 30.09 in 10.0 mi NNW 18.4 mph 27.6 mph N/A   Mostly Cloudy
9:55 AM 29.5 °F 16.5 °F 23.4 °F 78% 30.10 in 10.0 mi North 20.7 mph - N/A   Mostly Cloudy
10:15 AM 30.4 °F 18.7 °F 23.4 °F 75% 30.10 in 10.0 mi NNW 17.3 mph 20.7 mph N/A   Scattered Clouds
10:35 AM 30.2 °F 18.5 °F 22.8 °F 74% 30.11 in 10.0 mi North 17.3 mph 26.5 mph N/A   Scattered Clouds
10:55 AM 30.2 °F 19.3 °F 22.6 °F 73% 30.12 in 10.0 mi North 15.0 mph 25.3 mph N/A   Mostly Cloudy
11:15 AM 30.6 °F 17.9 °F 22.8 °F 73% 30.12 in 10.0 mi NNW 20.7 mph 27.6 mph N/A   Scattered Clouds
11:35 AM 30.2 °F 19.8 °F 22.8 °F 74% 30.12 in 10.0 mi North 13.8 mph 21.9 mph N/A   Mostly Cloudy
11:55 AM 30.7 °F 20.0 °F 23.4 °F 74% 30.12 in 10.0 mi North 15.0 mph 20.7 mph N/A   Overcast
12:15 PM 30.9 °F 20.7 °F 23.0 °F 72% 30.11 in 10.0 mi North 13.8 mph - N/A   Overcast
12:35 PM 31.1 °F 19.7 °F 22.8 °F 71% 30.08 in 10.0 mi North 17.3 mph - N/A   Scattered Clouds
12:55 PM 31.6 °F 20.4 °F 22.8 °F 70% 30.07 in 10.0 mi North 17.3 mph 20.7 mph N/A   Scattered Clouds
1:15 PM 32.0 °F 21.2 °F 23.4 °F 70% 30.06 in 10.0 mi North 16.1 mph - N/A   Clear
1:35 PM 31.8 °F 22.8 °F 23.9 °F 73% 30.06 in 10.0 mi NNW 11.5 mph 16.1 mph N/A   Scattered Clouds
1:55 PM 31.8 °F 22.3 °F 23.7 °F 72% 30.05 in 10.0 mi North 12.7 mph - N/A   Scattered Clouds
2:15 PM 31.5 °F 22.9 °F 23.7 °F 73% 30.05 in 10.0 mi NNW 10.4 mph 16.1 mph N/A   Mostly Cloudy
2:35 PM 31.5 °F 23.5 °F 23.9 °F 74% 30.04 in 10.0 mi NNW 9.2 mph - N/A   Overcast
2:55 PM 31.8 °F 23.9 °F 23.7 °F 72% 30.04 in 10.0 mi NNW 9.2 mph - N/A   Scattered Clouds
3:15 PM 31.1 °F 24.5 °F 23.5 °F 74% 30.04 in 10.0 mi NNW 6.9 mph - N/A   Scattered Clouds
3:35 PM 31.1 °F 25.4 °F 23.7 °F 74% 30.03 in 10.0 mi North 5.8 mph - N/A   Mostly Cloudy
3:55 PM 30.2 °F - 23.4 °F 76% 30.04 in 10.0 mi Calm Calm - N/A   Overcast
4:15 PM 30.6 °F 27.1 °F 23.5 °F 75% 30.02 in 10.0 mi NNE 3.5 mph - N/A   Overcast
4:35 PM 30.0 °F 26.5 °F 23.4 °F 76% 30.01 in 10.0 mi NNW 3.5 mph - N/A   Overcast
4:50 PM 29.8 °F - 23.2 °F 76% 30.01 in 10.0 mi Calm Calm - N/A   Mostly Cloudy
5:15 PM 28.9 °F - 23.0 °F 78% 30.00 in 10.0 mi Calm Calm - N/A   Mostly Cloudy
5:35 PM 28.0 °F - 22.6 °F 80% 29.98 in 10.0 mi Calm Calm - N/A   Scattered Clouds
5:55 PM 26.8 °F - 22.6 °F 84% 29.97 in 10.0 mi Calm Calm - N/A   Clear
6:15 PM 26.6 °F 22.6 °F 22.3 °F 84% 29.99 in 10.0 mi South 3.5 mph - N/A   Clear
6:35 PM 25.9 °F - 21.7 °F 84% 30.01 in 10.0 mi Calm Calm - N/A   Clear
6:55 PM 24.4 °F 17.5 °F 20.5 °F 85% 30.00 in 10.0 mi SSE 5.8 mph - N/A   Clear
7:15 PM 24.8 °F 20.5 °F 21.7 °F 88% 29.98 in 10.0 mi South 3.5 mph - N/A   Clear
7:35 PM 25.0 °F 18.1 °F 21.7 °F 87% 29.97 in 10.0 mi South 5.8 mph - N/A   Clear
7:55 PM 25.2 °F 20.9 °F 21.7 °F 87% 29.97 in 10.0 mi South 3.5 mph - N/A   Clear
8:15 PM 25.7 °F 19.0 °F 22.1 °F 86% 29.95 in 10.0 mi SSE 5.8 mph - N/A   Clear
8:35 PM 25.7 °F 21.5 °F 22.1 °F 86% 29.95 in 10.0 mi South 3.5 mph - N/A   Clear
8:55 PM 25.7 °F 20.1 °F 22.1 °F 86% 29.95 in 10.0 mi South 4.6 mph - N/A   Clear
9:15 PM 25.7 °F 16.4 °F 22.1 °F 86% 29.93 in 10.0 mi South 9.2 mph - N/A   Clear
9:35 PM 26.2 °F 18.6 °F 22.3 °F 85% 29.92 in 10.0 mi South 6.9 mph - N/A   Clear
9:55 PM 26.4 °F 17.3 °F 22.5 °F 85% 29.92 in 10.0 mi South 9.2 mph - N/A   Clear
10:15 PM 26.6 °F 19.1 °F 22.6 °F 85% 29.91 in 10.0 mi South 6.9 mph - N/A   Clear
10:35 PM 27.0 °F 19.5 °F 22.8 °F 84% 29.90 in 10.0 mi South 6.9 mph - N/A   Clear
10:55 PM 27.5 °F 18.0 °F 23.4 °F 84% 29.90 in 10.0 mi SSW 10.4 mph - N/A   Clear
11:15 PM 27.5 °F 20.2 °F 23.5 °F 85% 29.91 in 10.0 mi SSW 6.9 mph - N/A   Scattered Clouds
11:35 PM 27.7 °F 19.6 °F 23.7 °F 85% 29.88 in 10.0 mi South 8.1 mph - N/A   Scattered Clouds
11:55 PM 27.9 °F 17.3 °F 24.1 °F 86% 29.86 in 10.0 mi SSW 12.7 mph - N/A   Scattered Clouds